Location: DAV
(33.5613°N, 82.7640°W)
Time: 00:14:31
(UTC-04:00)

Envisat - Visible Passes

Search period start: 29 October 2020 00:00
Search period end: 07 November 2020 23:00
Orbit: 764 x 766 km, 98.1° (Epoch: 28 October)

Date Brightness Start Highest point End Pass type
(mag) Time Alt. Az. Time Alt. Az. Time Alt. Az.
29 Oct 4.8 06:51:12 10° NNE 06:55:52 36° E 07:00:29 10° SSE visible
29 Oct 5.6 19:41:15 10° SSW 19:45:18 24° W 19:49:22 10° NW visible
30 Oct 6.2 06:15:59 10° ENE 06:18:49 15° E 06:21:39 10° SE visible
30 Oct 3.8 19:03:23 10° S 19:08:22 58° W 19:13:22 10° NNW visible
31 Oct 3.5 07:16:17 10° NNE 07:21:20 68° E 07:26:23 10° S visible
31 Oct 6.4 20:08:47 10° WSW 20:10:55 13° W 20:13:05 10° WNW visible
01 Nov 5.3 05:40:06 10° NE 05:44:26 28° E 05:48:44 10° SSE visible
01 Nov 5.1 18:29:24 10° SSW 18:33:52 31° W 18:38:21 10° NW visible
02 Nov 6.5 05:05:57 10° ENE 05:07:21 11° E 05:08:45 10° ESE visible
03 Nov 4.0 06:05:00 10° NNE 06:09:57 52° E 06:14:53 10° S visible
03 Nov 6.1 18:56:15 10° SW 18:59:27 17° W 19:02:40 10° NW visible
04 Nov 5.7 05:29:09 10° NE 05:33:00 21° E 05:36:49 10° SE visible
04 Nov 4.6 18:17:42 10° SSW 18:22:26 40° W 18:27:13 10° NNW visible
06 Nov 4.6 05:53:48 10° NNE 05:58:33 39° E 06:03:16 10° SSE visible
06 Nov 5.7 18:44:08 10° SW 18:48:00 22° W 18:51:52 10° NW visible
07 Nov 6.1 05:18:23 10° NE 05:21:32 16° E 05:24:41 10° SE visible
07 Nov 4.0 18:06:07 10° S 18:11:03 53° W 18:16:00 10° NNW visible
